Montana Department of Transportation

Main Content

Accidents and Incidents Report

Hourly Weather Roundup

ASUS45 KTFX 210019
RWRMT 
MONTANA HOURLY WEATHER ROUNDUP
NATIONAL WEATHER SERVICE GREAT FALLS MT
619 PM MDT MON OCT 20 2014

NOTE: "FAIR" INDICATES FEW OR NO CLOUDS BELOW 12000 FEET WITH NO
SIGNIFICANT WEATHER AND/OR OBSTRUCTIONS TO VISIBILITY.

* THESE STATIONS ARE NOT UNDER NWS QUALITY CONTROL. THEY DO NOT
   REPORT WEATHER SUCH AS PRECIPITATION OR FOG.

MTZ001.007-043-210100-
WEST OF THE DIVIDE
CITY           SKY/WX    TMP DP  RH WIND       PRES   REMARKS
KALISPELL      CLEAR     64  41  43 CALM      29.72F 
MISSOULA       PTCLDY    64  39  40 W6        29.72F 
BUTTE          PTCLDY    68  32  26 S17       29.87F 
MULLAN PASS    MOCLDY    50  36  59 NW5       29.86F 
* ESSEX        N/A       56  39  53 S1         N/A   
* LINCOLN      N/A       74  29  19 W4G12      N/A   
* POLSON       N/A       62  40  45 N/A        N/A   
* RONAN APT    CLEAR     70  45  41 N/A        N/A   
* SEELEY LAKE  N/A       76  32  20 SE2G10     N/A   
* THOMP F APT  PTCLDY    64  31  29 S9G15      N/A   
--------------------------------

MTZ008-052.055-210100-
SOUTHWEST MONTANA
CITY           SKY/WX    TMP DP  RH WIND       PRES   REMARKS
BOZEMAN        PTCLDY    72  34  25 SW10      29.84F 
DILLON         CLEAR     70  28  21 S22G29    29.85F 
W YELLOWSTONE  MOCLDY    59  32  36 CALM      30.03F 
* THREE FORKS  PTCLDY    75  41  30 S10G18     N/A   
* BOULDER HILL N/A       68  30  24 S14G22     N/A   
* MONIDA PASS  N/A       59  30  33 S11        N/A   
* RAYNOLDS PAS N/A       62  40  45 SE12G18    N/A   
* WHITEHALL    N/A       74  32  21 E6G13      N/A   
* WISE RIVER   N/A       71  28  20 W6G15      N/A   
--------------------------------

MTZ009.010-012-014-046-048-049-054-210100-
EAST SLOPES AND CENTRAL MONTANA
CITY           SKY/WX    TMP DP  RH WIND       PRES   REMARKS
CUT BANK       CLEAR     68  28  22 W8        29.74S 
GREAT FALLS    CLEAR     70  34  27 S7        29.75F 
HELENA         CLEAR     75  32  21 S10       29.75F 
* CONRAD       CLEAR     75  28  18 N/A        N/A   
* DEARBORN     N/A       76  33  21 SE1        N/A   
* EAST GLACIER N/A       66  27  23 W23G31     N/A   
* MONARCH      N/A       67  26  21 S7G13      N/A   
* PENDROY      N/A       70  31  24 W5G12      N/A   
* ROGERS PASS  N/A       65  33  30 S2G9       N/A   
* SAINT MARY   N/A       68  28  22 SW7G15     N/A   
* SWEET GRASS  N/A       72  25  17 W11G16     N/A   
* WHITE SULPH  N/A       69  30  23 S5G13      N/A   
--------------------------------

MTZ011-013-016-021-035-040-045-047-050-051-210100-
NORTH CENTRAL MONTANA
CITY           SKY/WX    TMP DP  RH WIND       PRES   REMARKS
HAVRE          CLEAR     68  48  49 NE9       29.70F 
LEWISTOWN      CLEAR     68  36  31 S6        29.83F 
* CHINOOK      CLEAR     66  48  52 E5        29.71F 
* FORT BENTON  CLEAR     75  32  21 S5        29.72F 
* CHESTER      N/A       77  29  17 SW1        N/A   
* DENTON       N/A       73  36  26 S7         N/A   
* GEYSER       N/A       68  34  28 S9         N/A   
* JUDITH GAP   N/A       68  34  28 S6         N/A   
* LOMA         N/A       79  30  17 S7         N/A   
--------------------------------

MTZ017.020-022.027-061-062-210100-
NORTHEAST MONTANA
CITY           SKY/WX    TMP DP  RH WIND       PRES   REMARKS
GLASGOW        CLEAR     66  43  43 E5        29.76F 
GLENDIVE       CLEAR     70  39  32 SE5       29.84F 
JORDAN         CLEAR     68  37  32 S7        29.78F 
SIDNEY         CLEAR     61  43  52 CALM      29.83S 
WOLF POINT     CLEAR     70  43  38 SE3       29.77F 
* BEAVER HILL  N/A       68  42  39 SE14       N/A   
* CIRCLE       N/A       74  38  27 N/A        N/A   
* LINDSAY DVD  N/A       66  39  37 SE5        N/A   
* NAVAJO       N/A       65  41  42 S8         N/A   
* SACO         N/A       68  47  47 NE6        N/A   
--------------------------------

MTZ028.042-056.058-210100-
SOUTHCENTRAL AND SOUTHEAST MONTANA
CITY           SKY/WX    TMP DP  RH WIND       PRES   REMARKS
BAKER          CLEAR61  41  48 S10       29.88S 
BILLINGS       CLEAR     75  28  18 SW3       29.84F 
LIVINGSTON     CLEAR     72  30  21 SW12      29.85F 
MILES CITY     CLEAR     73  37  27 CALM      29.82F 
* LAUREL APT   CLEAR     73  30  20 N/A        N/A   
* ROUNDUP APT  CLEAR     75  30  19 N/A        N/A   
* ALZADA       N/A       66  46  49 E6         N/A   
* HYSHAM       N/A       71  30  22 N/A        N/A   
* LAME DEER    N/A       69  33  26 N/A        N/A   
* REED POINT   N/A       71  31  23 SE5        N/A   
* ROSCOE HILL  N/A       67  24  20 E10        N/A   
--------------------------------

REGIONAL REPORTS...DAKOTAS
CITY           SKY/WX    TMP DP  RH WIND       PRES   REMARKS
WILLISTON      CLEAR     72  39  30 SE6       29.82S 
DICKINSON      CLEAR     61  41  48 E10       29.88S 
BEACH          N/A       63  41  45 S10       29.87S 
CROSBY         CLEAR     59  41  51 SE9       29.83S 
TIOGA          CLEAR     63  41  45 SE14      29.88F 
BISMARCK       CLEAR     55  34  45 SE8       29.94F 
GRAND FORKS    CLEAR     54  41  62 E6        30.03S 
FARGO          CLEAR     54  41  62 CALM      30.03R 
BUFFALO SD     CLEAR     66  43  43 SE9       29.84F 
RAPID CITY     CLEAR     68  46  45 S12       29.91S 
--------------------------------

REGIONAL REPORTS...WYOMING/IDAHO/WASHINGTON
CITY           SKY/WX    TMP DP  RH WIND       PRES   REMARKS
GILLETTE       CLEAR     70  30  23 S13       29.90F 
SHERIDAN       CLEAR     61  39  44 W6        29.87F 
CODY           CLEAR    N/A N/A N/A CALM      29.93S 
YELLOWSTONE LA MOCLDY    55  32  42 VRB5      30.14S 
SALMON         PTCLDY    64  39  40 CALM      29.74F 
MULLAN PASS    MOCLDY    50  36  59 NW5       29.86S 
SAND POINT     PTCLDY    61  48  62 CALM      29.73F 
SPOKANE        MOCLDY    64  45  50 SW7       29.74F 
--------------------------------

REGIONAL REPORTS...ALBERTA
CITY           SKY/WX    TMP DP  RH WIND       PRES   REMARKS
CALGARY        MOCLDY    70  28  21 SW14      29.59F 
LETHBRIDGE     FAIR      64  30  28 SW13      29.66S 
MEDICINE HAT   N/A       72  34  25 S8        29.63F 
EDMONTON       PTCLDY    66  36  33 E5        29.52S 
WATERTON GATE  N/A       64  30  28 SW10G18    N/A   
CARDSTON       N/A       68  32  26 SW6        N/A   
MILK RIVER     N/A       68  27  21 SW7        N/A   
--------------------------------

REGIONAL REPORTS...SASKATCHEWAN
CITY           SKY/WX    TMP DP  RH WIND       PRES   REMARKS
SWIFT CURRENT  CLEAR     63  39  41 S10       29.70S 
MOOSE JAW      N/A       64  46  52 SE8       29.73F 
REGINA         N/A       63  43  48 S14       29.76S 
VAL MARIE      N/A       59  46  62 S8         N/A   
ASSINIBOIA     N/A       63  39  41 SE8        N/A   
CORONACH       N/A       64  39  40 SE6        N/A   

--------------------------------